LUCH 5V (SDCM/PRN 141)

Last updated on Aug. 7, 2020, 5:36 a.m. UTC

1 39727U 14023A   20219.81429753 -.00000281  00000-0  00000-0 0  9993
2 39727   0.4748 344.4830 0003494 141.8102 217.3717  1.00275097 22931
UTC
Height (km)
Latitude
Longitude
Inclination
Orbital Period
UTC large
Height (km)
Speed (km/s)
/
Latitude / Longitude
Inclination (degrees)
Orbital Period (minutes)
Azimuth
Elevation
Range (km)
Doppler Factor
iOS Compass Heading
iOS Angle

Next 30 passes for location: Hong Kong

Rise time Rise Azimuth (degrees) Set time Set Azimuth (degrees) Duration Max altitude (degrees)

No matching passes for this satellites